• In Spain
  • List of Countries
  • For 7 days
  • Water Temperature
  • Satellite Maps
  • Weather Map
  • Weather Widgets
  • user-avatar
    Login

    Hourly Weather Sines

    Today, 22 November, Wednesday

    Time Temperature Precipitation Wind Pressure Humidity
    00:00 +13°C° 0 mm 4 mps 761 mmHg 72%
    01:00 +13°C° 0 mm 4 mps 761 mmHg 72%
    02:00 +13°C° 0 mm 4 mps 760 mmHg 71%
    03:00 +12°C° 0 mm 4 mps 760 mmHg 72%
    04:00 +12°C° 0 mm 4 mps 760 mmHg 74%
    05:00 +12°C° 0 mm 4 mps 760 mmHg 75%
    06:00 +13°C° 0 mm 5 mps 760 mmHg 74%
    07:00 +14°C° 0 mm 5 mps 760 mmHg 72%
    08:00 +15°C° 0 mm 5 mps 760 mmHg 70%
    09:00 +19°C° 0 mm 6 mps 760 mmHg 62%
    10:00 +21°C° 0 mm 6 mps 760 mmHg 53%
    11:00 +23°C° 0 mm 7 mps 759 mmHg 44%
    12:00 +24°C° 0 mm 7 mps 759 mmHg 43%
    13:00 +24°C° 0 mm 7 mps 759 mmHg 42%
    14:00 +24°C° 0 mm 7 mps 758 mmHg 41%
    15:00 +23°C° 0 mm 6 mps 758 mmHg 48%
    16:00 +21°C° 0 mm 6 mps 758 mmHg 54%
    17:00 +20°C° 0 mm 6 mps 758 mmHg 61%
    18:00 +19°C° 0 mm 6 mps 759 mmHg 67%
    19:00 +17°C° 0 mm 6 mps 759 mmHg 73%
    20:00 +17°C° 0 mm 6 mps 759 mmHg 79%
    21:00 +16°C° 0 mm 5 mps 759 mmHg 79%
    22:00 +16°C° 0 mm 5 mps 759 mmHg 80%
    23:00 +16°C° 0 mm 5 mps 759 mmHg 81%

    Tomorrow, 23 November, Thursday

    Time Temperature Precipitation Wind Pressure Humidity
    00:00 +16°C° 0 mm 5 mps 759 mmHg 81%
    01:00 +16°C° 0 mm 5 mps 759 mmHg 81%
    02:00 +16°C° 0 mm 5 mps 759 mmHg 81%
    03:00 +16°C° 0 mm 5 mps 759 mmHg 81%
    04:00 +16°C° 0 mm 6 mps 759 mmHg 82%
    05:00 +15°C° 0 mm 6 mps 759 mmHg 82%
    06:00 +16°C° 0 mm 6 mps 759 mmHg 76%
    07:00 +18°C° 0 mm 7 mps 759 mmHg 70%
    08:00 +20°C° 0 mm 8 mps 760 mmHg 64%
    09:00 +21°C° 0 mm 8 mps 760 mmHg 53%
    10:00 +23°C° 0 mm 9 mps 759 mmHg 43%
    11:00 +26°C° 0 mm 10 mps 759 mmHg 33%
    12:00 +24°C° 0.1 mm 10 mps 759 mmHg 36%
    13:00 +23°C° 0.1 mm 10 mps 759 mmHg 39%
    14:00 +23°C° 0.1 mm 10 mps 759 mmHg 43%
    15:00 +22°C° 0.1 mm 9 mps 759 mmHg 50%
    16:00 +21°C° 0.1 mm 9 mps 760 mmHg 57%
    17:00 +18°C° 0.1 mm 8 mps 760 mmHg 65%
    18:00 +18°C° 0.1 mm 7 mps 760 mmHg 63%
    19:00 +19°C° 0.1 mm 6 mps 761 mmHg 61%
    20:00 +19°C° 0.1 mm 5 mps 761 mmHg 59%
    21:00 +17°C° 0.1 mm 5 mps 761 mmHg 64%
    22:00 +17°C° 0.1 mm 5 mps 761 mmHg 69%
    23:00 +17°C° 0.1 mm 5 mps 761 mmHg 74%

    Day after tomorrow, 24 November, Friday

    Time Temperature Precipitation Wind Pressure Humidity
    00:00 +16°C° 0.2 mm 5 mps 761 mmHg 78%
    01:00 +16°C° 0.2 mm 5 mps 761 mmHg 82%
    02:00 +15°C° 0.2 mm 5 mps 761 mmHg 86%
    03:00 +15°C° 0 mm 5 mps 760 mmHg 86%
    04:00 +15°C° 0 mm 5 mps 760 mmHg 87%
    05:00 +15°C° 0 mm 5 mps 760 mmHg 87%
    06:00 +16°C° 0 mm 5 mps 761 mmHg 80%
    07:00 +17°C° 0 mm 5 mps 761 mmHg 74%
    08:00 +19°C° 0 mm 5 mps 761 mmHg 67%
    09:00 +21°C° 0 mm 6 mps 761 mmHg 59%
    10:00 +22°C° 0 mm 6 mps 761 mmHg 51%
    11:00 +24°C° 0 mm 7 mps 761 mmHg 43%
    12:00 +24°C° 0 mm 7 mps 761 mmHg 45%
    13:00 +24°C° 0 mm 6 mps 761 mmHg 46%
    14:00 +24°C° 0 mm 6 mps 760 mmHg 48%
    15:00 +22°C° 0 mm 5 mps 761 mmHg 54%
    16:00 +21°C° 0 mm 5 mps 761 mmHg 59%
    17:00 +20°C° 0 mm 4 mps 761 mmHg 65%
    18:00 +19°C° 0 mm 4 mps 761 mmHg 66%
    19:00 +19°C° 0 mm 3 mps 762 mmHg 67%
    20:00 +18°C° 0 mm 3 mps 762 mmHg 69%
    21:00 +18°C° 0 mm 3 mps 762 mmHg 70%
    22:00 +18°C° 0 mm 2 mps 762 mmHg 71%
    23:00 +18°C° 0 mm 2 mps 762 mmHg 72%

    25 November, Saturday

    Time Temperature Precipitation Wind Pressure Humidity
    00:00 +18°C° 0 mm 2 mps 762 mmHg 72%
    01:00 +18°C° 0 mm 2 mps 762 mmHg 72%
    02:00 +18°C° 0 mm 2 mps 762 mmHg 72%
    03:00 +18°C° 0.1 mm 2 mps 762 mmHg 73%
    04:00 +18°C° 0.1 mm 2 mps 762 mmHg 74%
    05:00 +17°C° 0.1 mm 2 mps 762 mmHg 75%
    06:00 +17°C° 0.4 mm 2 mps 762 mmHg 75%
    07:00 +18°C° 0.4 mm 2 mps 763 mmHg 75%
    08:00 +18°C° 0.4 mm 3 mps 763 mmHg 76%
    09:00 +18°C° 0.2 mm 2 mps 763 mmHg 72%
    10:00 +19°C° 0.2 mm 2 mps 763 mmHg 69%
    11:00 +20°C° 0.2 mm 2 mps 763 mmHg 66%
    12:00 +20°C° 0.2 mm 2 mps 763 mmHg 66%
    13:00 +20°C° 0.2 mm 2 mps 763 mmHg 66%
    14:00 +20°C° 0.2 mm 2 mps 763 mmHg 66%
    15:00 +19°C° 0.2 mm 2 mps 763 mmHg 70%
    16:00 +18°C° 0.2 mm 2 mps 763 mmHg 73%
    17:00 +17°C° 0.2 mm 2 mps 763 mmHg 76%
    18:00 +17°C° 0.1 mm 3 mps 764 mmHg 76%
    19:00 +17°C° 0.1 mm 3 mps 764 mmHg 76%
    20:00 +15°C° 0.1 mm 4 mps 764 mmHg 76%
    21:00 +16°C° 0.1 mm 3 mps 764 mmHg 76%
    22:00 +16°C° 0.1 mm 3 mps 764 mmHg 76%
    23:00 +16°C° 0.1 mm 3 mps 764 mmHg 75%

    26 November, Sunday

    Time Temperature Precipitation Wind Pressure Humidity
    00:00 +16°C° 0.1 mm 2 mps 764 mmHg 75%
    01:00 +16°C° 0.1 mm 2 mps 764 mmHg 75%
    02:00 +16°C° 0.1 mm 1 mps 763 mmHg 75%
    03:00 +16°C° 0.3 mm 1 mps 764 mmHg 77%
    04:00 +16°C° 0.3 mm 1 mps 764 mmHg 79%
    05:00 +16°C° 0.3 mm 1 mps 764 mmHg 81%
    06:00 +16°C° 0.3 mm 1 mps 764 mmHg 82%
    07:00 +16°C° 0.3 mm 2 mps 765 mmHg 84%
    08:00 +16°C° 0.3 mm 3 mps 765 mmHg 85%
    09:00 +17°C° 0.1 mm 3 mps 765 mmHg 83%
    10:00 +17°C° 0.1 mm 3 mps 766 mmHg 81%
    11:00 +18°C° 0.1 mm 3 mps 766 mmHg 79%
    12:00 +18°C° 0 mm 3 mps 765 mmHg 73%
    13:00 +19°C° 0 mm 3 mps 765 mmHg 67%
    14:00 +20°C° 0 mm 3 mps 765 mmHg 61%
    15:00 +19°C° 0 mm 4 mps 765 mmHg 66%
    16:00 +18°C° 0 mm 4 mps 765 mmHg 71%
    17:00 +17°C° 0 mm 4 mps 765 mmHg 76%
    18:00 +17°C° 0 mm 4 mps 765 mmHg 78%
    19:00 +15°C° 0 mm 4 mps 766 mmHg 80%
    20:00 +15°C° 0 mm 4 mps 766 mmHg 82%
    21:00 +15°C° 0 mm 4 mps 765 mmHg 80%
    22:00 +15°C° 0 mm 4 mps 765 mmHg 78%
    23:00 +15°C° 0 mm 4 mps 765 mmHg 77%

    27 November, Monday

    Time Temperature Precipitation Wind Pressure Humidity
    00:00 +15°C° 0 mm 4 mps 765 mmHg 75%
    01:00 +15°C° 0 mm 4 mps 765 mmHg 74%
    02:00 +15°C° 0 mm 4 mps 765 mmHg 72%
    03:00 +15°C° 0 mm 4 mps 764 mmHg 71%
    04:00 +15°C° 0 mm 4 mps 764 mmHg 70%
    05:00 +15°C° 0 mm 5 mps 764 mmHg 68%
    06:00 +17°C° 0 mm 4 mps 764 mmHg 67%
    07:00 +17°C° 0 mm 4 mps 764 mmHg 66%
    08:00 +17°C° 0 mm 4 mps 765 mmHg 65%
    09:00 +18°C° 0 mm 4 mps 764 mmHg 63%
    10:00 +19°C° 0 mm 4 mps 764 mmHg 61%
    11:00 +20°C° 0 mm 5 mps 764 mmHg 59%
    12:00 +20°C° 0 mm 4 mps 763 mmHg 58%
    13:00 +21°C° 0 mm 4 mps 763 mmHg 57%
    14:00 +21°C° 0 mm 4 mps 762 mmHg 57%
    15:00 +20°C° 0.1 mm 5 mps 762 mmHg 62%
    16:00 +19°C° 0.1 mm 5 mps 762 mmHg 68%
    17:00 +19°C° 0.1 mm 5 mps 761 mmHg 73%
    18:00 +17°C° 0.2 mm 5 mps 761 mmHg 77%
    19:00 +17°C° 0.2 mm 5 mps 761 mmHg 80%
    20:00 +17°C° 0.2 mm 5 mps 761 mmHg 84%
    21:00 +17°C° 0.7 mm 5 mps 760 mmHg 87%
    22:00 +17°C° 0.7 mm 5 mps 760 mmHg 89%
    23:00 +16°C° 0.7 mm 5 mps 759 mmHg 92%
    Show more